Location: Newark
(54.2500°N, 9.1833°E)
Time: 17:48:54
(UTC+00:00)

A-11 Canister half - Pass Details

Date: 18 December 2019
Orbit: 1517 x 1683 km, 47.2° (Epoch: 25 January)

Event Time Altitude Azimuth Distance (km) Brightness Sun altitude
Rises 17:20:59 0° 282° (WNW) 4,870 12.8 -19.0°
Reaches altitude 10° 17:27:37 10° 251° (WSW) 3,913 12.3 -19.9°
Maximum altitude 17:29:54 11° 237° (WSW) 3,842 12.1 -20.2°
Drops below altitude 10° 17:32:12 10° 223° (SW) 3,927 11.9 -20.6°
Sets 17:38:58 0° 192° (SSW) 4,924 11.9 -21.5°
